LTACLTBR

Guest
Details From LTAC - ESENBOGA
To LTBR - YENISEHIR
Flight Number -
Tags decoded
Created
Modified
Stats Distance 158 nm / 293 km
Max Altitude 0 ft / 0 m
Waypoints 4
Social Downloads 0
Likes 0
Share VATSIM

Download

Looking for another format? Having issues loading an existing format? Contact us
Advertisement - Login to hide

Notes

Requested: LTAC PETAR TOKER LTBR

Route

LTAC PETAR TOKER LTBR

ID Type Via Altitude Latitude Longitude Leg Dist Tot Dist Heading (true) Name
O LTAC APT - 0 ft / 0 m 40.12828˚ 32.99540˚ - 0 nm - ESENBOGA
PETAR FIX - 0 ft / 0 m 40.17222˚ 32.08194˚ 42 nm 42 nm 274° / 273° -
TOKER FIX - 0 ft / 0 m 40.31333˚ 30.77222˚ 60 nm 102 nm 278° / 278° -
O LTBR APT - 0 ft / 0 m 40.25521˚ 29.56257˚ 55 nm 158 nm 267° / 266° YENISEHIR

Altitude Profile

Advertisement - Login to hide

LTAC

Details ICAO LTAC (ESB)
Name ESENBOGA
Region Turkey
Timezone Europe/Istanbul (UTC+3.0)
Stats Elevation 3,125 ft / 953 m (AMSL)
Location 40.128285° 32.995403°
Runways 2
Magnetic Variation 5.756° E

METAR

LTAC 261220Z 08010KT 9999 SCT040 23/10 Q1012 NOSIG

Decode

TAF

TAF LTAC 261040Z 2612/2712 04008KT 9999 SCT040 TEMPO 2612/2616 03018G30KT -TSRA SCT025CB BKN030 TEMPO 2616/2620 03020G35KT -TSRA SCT025CB BKN030= TAF LTAI 261040Z 2612/2712 18012KT 9999 FEW020CB TEMPO 2612/2616 -SHRA FEW020CB BKN030 BECMG 2616/2620 VRB02KT CAVOK BECMG 2706/2710 18012KT SCT030

Decode

Departure Runways

ID Width Length Bearing (true) Bearing (mag) Surface Threshold Offset Overrun Length
03L 148 ft / 45 m 12,334 ft / 3,760 m 36.19° 30.43° Asphalt 1,148 ft / 350 m 200 ft / 61 m
03R 197 ft / 60 m 12,258 ft / 3,736 m 35.29° 29.53° Asphalt 0 ft / 0 m 200 ft / 61 m
21L 197 ft / 60 m 12,258 ft / 3,736 m 215.31° 209.55° Asphalt 0 ft / 0 m 200 ft / 61 m
21R 148 ft / 45 m 12,334 ft / 3,760 m 216.21° 210.45° Asphalt 0 ft / 0 m 200 ft / 61 m

LTBR

Details ICAO LTBR (YEI)
Name YENISEHIR
Region Turkey
Timezone Europe/Istanbul (UTC+3.0)
Stats Elevation 764 ft / 233 m (AMSL)
Location 40.255208° 29.562569°
Runways 2
Magnetic Variation 5.451° E

METAR

LTBR 261231Z 35012KT 8000 -SHRA SCT025CB BKN030 19/17 Q1012 RETSRA TEMPO 2000 +TSGRRA RMK RWY07 36014KT 330V030

Decode

TAF

Not found

Destination Runways

ID Width Length Bearing (true) Bearing (mag) Surface Threshold Offset Overrun Length
07L 148 ft / 45 m 9,798 ft / 2,987 m 74.45° 69.00° Concrete 0 ft / 0 m 1,075 ft / 328 m
07R 98 ft / 30 m 9,799 ft / 2,987 m 74.45° 69.00° Concrete 0 ft / 0 m 137 ft / 42 m
25L 98 ft / 30 m 9,799 ft / 2,987 m 254.47° 249.02° Concrete 0 ft / 0 m 603 ft / 184 m
25R 148 ft / 45 m 9,798 ft / 2,987 m 254.48° 249.03° Concrete 0 ft / 0 m 1,082 ft / 330 m

Approach Navaids

Runway Type Ident Frequency Range Bearing (true) Bearing (mag) Slope Elevation
25R Localiser IYEN 109.70 MHz 18 nm / 33 km 254.21° 248.76° - 764 ft / 233 m (AMSL)
25R Glidescope IYEN 109.70 MHz 10 nm / 19 km 254.46° 249.01° 3.00° 798 ft / 243 m (AMSL)

Popular Alternatives